TimeEST,TemperatureF,Dew PointF,Humidity,Sea Level PressureIn,VisibilityMPH,Wind Direction,Wind SpeedMPH,Gust SpeedMPH,PrecipitationIn,Events,Conditions,WindDirDegrees,DateUTC
12:00 AM,21.9,21.0,96,30.40,-9999.0,Calm,Calm,-,N/A,,Clear,0,2013-01-08 05:00:00
1:00 AM,23.0,19.9,88,30.41,-9999.0,Calm,Calm,-,N/A,,Clear,0,2013-01-08 06:00:00
2:00 AM,23.0,21.0,92,30.40,-9999.0,Calm,Calm,-,N/A,,Clear,0,2013-01-08 07:00:00
3:00 AM,21.9,19.9,92,30.40,-9999.0,Calm,Calm,-,N/A,,Clear,0,2013-01-08 08:00:00
4:00 AM,21.9,19.0,89,30.38,-9999.0,Calm,Calm,-,N/A,,Clear,0,2013-01-08 09:00:00
5:00 AM,21.9,19.9,92,30.38,-9999.0,Calm,Calm,-,N/A,,Clear,0,2013-01-08 10:00:00
6:00 AM,26.1,23.0,88,30.40,-9999.0,Calm,Calm,-,N/A,,Clear,0,2013-01-08 11:00:00
7:00 AM,27.0,24.1,89,30.42,-9999.0,Calm,Calm,-,N/A,,Clear,0,2013-01-08 12:00:00
8:00 AM,30.0,28.0,92,30.43,-9999.0,SW,4.6,-,N/A,,Clear,220,2013-01-08 13:00:00
9:00 AM,37.0,30.9,79,30.43,-9999.0,WSW,9.2,-,N/A,,Clear,240,2013-01-08 14:00:00
10:00 AM,42.1,30.9,65,30.43,-9999.0,WSW,11.5,-,N/A,,Clear,250,2013-01-08 15:00:00
11:00 AM,46.0,28.9,51,30.41,-9999.0,WSW,10.4,19.6,N/A,,Clear,240,2013-01-08 16:00:00
12:00 PM,46.9,30.0,52,30.38,-9999.0,SW,11.5,-,N/A,,Clear,220,2013-01-08 17:00:00
2:00 PM,48.9,30.9,50,30.35,-9999.0,SW,11.5,-,N/A,,Clear,230,2013-01-08 19:00:00
3:00 PM,48.9,30.9,50,30.36,-9999.0,West,9.2,-,N/A,,Clear,260,2013-01-08 20:00:00
4:00 PM,46.9,32.0,56,30.38,-9999.0,West,9.2,-,N/A,,Clear,270,2013-01-08 21:00:00
5:00 PM,42.1,30.9,65,30.38,-9999.0,Calm,Calm,-,N/A,,Clear,0,2013-01-08 22:00:00
6:00 PM,35.1,30.0,82,30.38,-9999.0,Calm,Calm,-,N/A,,Clear,0,2013-01-08 23:00:00
7:00 PM,30.9,28.0,89,30.39,-9999.0,Calm,Calm,-,N/A,,Clear,0,2013-01-09 00:00:00
8:00 PM,26.1,25.0,96,30.40,-9999.0,Calm,Calm,-,N/A,,Clear,0,2013-01-09 01:00:00
9:00 PM,30.0,27.0,88,30.38,-9999.0,Calm,Calm,-,N/A,,Clear,0,2013-01-09 02:00:00
10:00 PM,27.0,25.0,92,30.39,-9999.0,Calm,Calm,-,N/A,,Clear,0,2013-01-09 03:00:00
11:00 PM,28.9,27.0,92,30.40,-9999.0,Calm,Calm,-,N/A,,Overcast,0,2013-01-09 04:00:00